Вернуться в каталог

OPS 4682 DEB

АктивенPO
NORAD 13131·DEBRIS·🇺🇸 United States

Запущен Apr 3, 1965 с Vandenberg Space Force Base

Loading…

Ближайшие Пролёты (ближайшие 24 часа)

TLE

СвежийSource: Space-Track

Эпоха: Sep 12, 2026, 01:18 UTC

1 13131U 65027H   26255.05466644  .00000596  00000-0  20059-2 0  9992
2 13131  90.2380 355.2665 0030361 194.7183 290.2118 12.98085293641978

Отслеживайте OPS 4682 DEB в реальном времени с AllMySat

Download on the App Store